Dewpoint
66 66 66 65 64 63 62 62 62 62 62 62 62 63 63 62 62 62 62 62 62 62 62 62 62 62 62 63 63 64 64 64 63 63 62 62 62 62 62 63 63 63 63 63 63 64 64 62 58 53 51 51 51 52 53 54 55 55 54 54 53 52 50 54 57 58 58 60 61 62 62 62 62 62 62 62 61 61 62 62 63 64 64 63 63 62 62 62 62 62 62 62 62 62 62 62 62 62 62 62 62 62 62
66 65 64 63 62 62 62 62 62 62 62 62 62 62 62 62 62 62 62 62 62 62 62 62 62 62 63 64 65 65 64 64 63 62 62 62 62 62 62 62 63 63 64 64 65 65 65 62 59 55 51 49 49 49 51 52 53 54 54 54 54 53 53 56 57 58 59 61 62 62 62 62 62 62 62 62 62 62 62 62 63 64 64 64 63 63 62 62 62 62 61 61 61 61 61 61 61 61 61 61 62 62 62
66 65 63 63 62 62 62 62 62 62 62 62 62 62 62 62 62 62 62 62 62 62 62 62 62 62 64 65 65 65 64 63 62 62 62 62 62 62 62 62 62 62 63 64 64 65 64 63 61 58 55 52 49 49 49 51 52 53 53 54 55 55 55 56 57 58 59 61 62 62 62 62 62 62 62 62 62 62 62 62 63 63 64 64 64 64 63 62 62 62 61 61 61 61 61 61 61 61 61 61 62 62 62
66 65 64 64 63 63 62 62 62 62 62 62 62 62 62 63 63 63 63 63 63 62 62 62 62 62 63 63 64 64 63 62 62 62 62 62 62 62 62 62 62 62 62 62 63 64 63 62 61 59 57 54 52 51 50 52 52 53 53 54 55 56 58 58 57 58 59 61 62 62 62 62 62 62 62 62 62 62 62 62 63 64 64 64 64 64 64 63 62 62 62 61 61 61 61 61 61 61 61 61 61 62 62
67 66 65 64 64 64 63 63 63 63 62 62 62 62 63 63 64 64 64 63 63 63 62 62 62 62 62 62 63 63 63 62 62 62 62 62 62 62 62 62 62 62 62 62 63 63 61 60 59 58 57 55 53 52 52 53 53 53 53 54 54 56 59 58 58 58 59 60 62 62 62 62 62 62 62 63 63 62 62 63 63 64 65 65 65 64 64 63 63 62 62 62 62 62 62 62 62 62 62 62 62 62 62
67 66 65 64 64 63 63 63 63 63 62 62 62 62 63 64 64 65 64 64 63 63 63 62 62 62 62 62 63 63 62 62 62 62 62 62 62 62 63 63 63 63 63 63 63 63 62 58 56 55 55 55 54 53 52 53 53 53 53 53 54 56 59 58 58 58 59 60 61 62 62 62 62 62 63 63 63 63 63 63 63 64 65 65 65 65 64 64 63 63 63 62 62 62 62 62 62 62 62 62 62 62 62
66 65 64 63 63 63 62 62 62 62 62 62 63 63 63 64 64 64 64 63 63 63 63 62 62 62 63 63 63 63 63 62 62 62 62 62 63 63 63 64 64 64 64 64 64 64 62 58 56 54 53 53 53 52 52 53 53 53 52 52 55 58 59 59 59 59 59 60 60 61 61 61 62 62 63 64 64 64 63 63 63 64 65 65 65 65 65 64 64 63 63 63 63 63 62 62 62 62 63 63 63 63 63
65 65 64 64 64 64 64 63 63 63 63 63 63 64 64 64 64 64 63 63 62 62 62 62 62 62 62 63 63 63 63 63 63 63 63 63 63 63 64 64 64 64 64 64 64 64 64 61 58 56 54 52 51 51 51 51 52 52 53 53 55 58 59 59 59 60 60 60 60 60 60 61 61 62 63 64 64 64 64 64 63 64 64 65 65 66 65 65 64 64 64 63 63 63 63 63 63 62 62 63 63 63 63
65 65 65 65 65 65 65 64 64 64 64 64 64 64 64 64 64 63 62 62 62 62 62 62 62 62 62 63 63 64 64 64 64 64 64 64 64 64 64 64 65 65 65 65 65 65 65 62 60 58 57 55 53 52 51 50 50 51 53 54 55 57 58 58 59 60 61 61 61 61 61 61 61 61 62 63 64 64 64 64 64 64 64 65 65 66 66 65 65 64 64 64 64 64 63 63 63 63 62 62 62 62 62
65 65 65 65 65 65 65 65 65 64 64 64 64 64 64 64 63 62 62 62 62 62 62 62 62 62 62 63 63 64 64 64 64 64 64 64 64 64 64 65 65 65 65 65 65 65 65 62 60 59 58 57 56 55 54 52 51 51 52 55 57 58 58 58 59 61 61 62 62 61 61 61 61 61 62 62 63 64 64 64 64 64 64 64 65 65 66 66 65 65 64 64 64 64 64 64 63 63 63 63 63 62 62
65 65 65 65 65 65 65 65 65 65 65 65 64 64 64 63 63 62 62 62 62 62 62 62 62 62 62 63 63 64 64 64 64 64 64 65 65 65 65 65 65 66 66 66 65 65 65 63 61 59 58 58 57 56 55 53 53 53 53 56 58 59 58 59 60 61 62 62 62 62 62 62 61 61 61 62 62 63 64 64 64 64 64 64 65 65 65 66 65 65 65 64 64 64 64 64 64 64 63 63 63 63 63
65 65 65 65 64 64 65 65 65 65 65 65 64 64 63 63 62 62 62 62 62 63 63 63 62 62 62 63 63 63 64 64 64 64 65 65 65 65 65 65 66 66 66 66 66 65 65 62 61 59 58 57 56 56 55 54 53 53 53 57 58 59 58 59 60 61 62 62 62 62 62 62 62 62 62 62 62 62 63 64 64 64 65 65 65 65 65 65 66 66 65 65 65 64 64 64 64 64 64 64 64 63 63
65 65 65 63 63 64 65 65 65 65 64 64 64 64 63 63 62 62 63 63 63 63 63 63 63 63 63 63 63 63 64 64 64 65 65 65 65 65 65 65 66 66 66 66 66 65 62 61 59 58 57 56 55 55 56 55 55 55 55 58 58 58 58 59 60 61 62 62 62 62 62 62 62 62 62 62 62 62 62 63 63 64 64 65 65 65 65 65 65 66 66 65 65 65 64 64 64 64 64 64 64 64 64
66 65 65 64 64 65 65 65 65 64 64 64 64 63 63 63 63 63 63 63 64 64 64 64 64 63 63 63 63 64 64 64 64 65 65 65 65 65 65 65 66 66 66 66 64 62 60 59 58 57 56 56 55 56 57 55 55 56 58 59 59 58 58 59 60 61 62 62 62 62 62 62 62 62 62 62 62 62 62 62 63 63 64 64 65 65 64 65 65 65 66 66 66 65 65 64 64 64 64 64 64 64 64
65 64 64 65 65 65 65 65 65 64 64 64 64 64 63 63 63 63 63 64 64 64 64 64 64 64 64 64 64 64 64 65 65 65 65 65 65 65 65 65 65 66 66 65 63 61 59 58 57 57 56 56 55 56 56 56 56 58 60 59 59 59 59 59 60 61 61 62 62 62 62 62 62 62 62 62 62 62 62 62 62 63 63 64 64 64 64 65 65 65 65 66 66 66 65 65 65 64 64 64 64 64 64
63 62 63 65 65 65 65 65 65 64 64 64 64 64 64 64 64 64 64 64 64 64 64 64 64 64 64 65 65 65 64 64 64 65 65 65 65 65 65 65 65 65 64 63 62 60 58 58 57 57 57 56 56 56 56 56 57 59 61 61 60 60 60 60 60 61 61 62 62 62 62 62 62 62 62 62 62 62 62 62 62 62 63 63 64 64 64 64 64 65 65 65 66 66 66 66 65 65 64 64 64 64 64
61 62 64 65 65 65 65 65 65 64 64 64 64 64 64 64 64 64 64 64 64 64 64 64 65 65 64 65 65 65 63 62 62 63 64 64 65 64 64 65 64 64 62 62 60 59 58 57 57 56 56 56 56 56 57 57 58 61 62 62 61 61 61 61 61 61 62 62 62 62 62 62 62 62 62 62 62 62 62 62 62 62 62 63 63 64 64 64 64 64 65 65 65 66 66 66 66 65 65 65 64 64 64
60 63 65 65 65 65 64 64 64 64 64 64 64 64 64 64 64 64 64 64 64 64 64 64 64 64 64 65 65 64 62 61 60 61 61 62 63 64 65 64 64 63 62 60 59 58 58 57 56 56 56 56 56 57 57 58 60 62 62 62 62 61 61 62 62 62 62 62 62 62 62 62 62 62 62 62 62 62 62 62 62 62 62 63 63 63 64 64 64 64 64 65 65 65 66 66 66 66 66 65 65 65 64
61 63 64 64 64 64 64 64 64 65 65 65 65 65 64 64 64 64 64 64 64 64 64 64 64 64 64 64 63 62 61 60 59 59 59 59 60 61 63 63 62 61 61 59 59 58 57 56 56 56 56 56 56 57 57 58 61 62 63 62 62 62 62 62 62 62 62 63 63 63 63 62 62 62 62 62 62 62 62 62 62 62 62 63 63 63 63 63 64 64 64 64 65 65 65 65 66 66 66 66 65 65 65
61 62 63 64 64 64 64 65 65 65 65 65 65 65 65 64 64 65 65 65 65 64 64 64 64 64 64 63 62 61 60 59 58 58 58 57 57 58 59 59 59 59 58 58 58 57 57 56 56 56 56 56 56 57 57 59 62 63 63 62 62 62 62 62 62 63 63 63 63 63 63 63 63 62 62 62 62 62 62 62 62 62 62 62 63 63 63 63 64 64 64 64 64 64 65 65 65 66 66 66 66 65 65
61 61 62 62 62 63 63 63 63 63 64 65 64 64 63 63 63 64 64 64 64 64 65 64 63 62 62 61 60 59 58 58 58 57 57 57 57 57 57 57 57 57 57 57 57 56 56 56 57 57 56 56 56 57 57 59 61 63 63 63 62 62 62 62 63 63 63 63 64 64 64 64 63 63 63 62 62 62 62 62 62 62 62 62 62 63 63 63 63 64 64 64 64 64 64 64 65 65 66 66 66 66 65
59 58 58 58 58 59 59 59 60 61 62 64 63 61 60 60 60 61 62 61 61 62 62 62 61 59 59 58 58 58 58 57 57 57 57 57 57 57 57 57 57 57 57 57 57 57 57 57 57 57 57 57 57 57 57 60 62 63 63 63 62 62 62 62 63 63 63 64 64 64 64 64 64 64 64 63 62 62 62 62 62 62 62 62 62 62 62 63 63 63 64 63 63 63 64 64 64 64 65 65 66 66 66
58 58 57 57 57 58 58 58 58 58 59 61 61 59 58 58 58 58 59 58 58 58 59 58 58 58 58 58 57 57 57 58 58 58 58 58 58 58 58 57 57 57 57 57 57 57 57 57 57 57 57 57 57 57 57 60 62 62 63 63 62 62 62 62 63 63 64 64 64 64 64 64 64 64 64 64 63 63 62 62 62 62 62 62 62 62 62 62 63 63 63 63 63 63 63 64 64 64 64 65 65 66 66
58 58 58 58 58 58 58 58 58 58 58 59 59 59 58 58 58 58 58 58 58 58 58 58 58 58 58 58 57 57 58 58 58 58 58 58 58 58 58 58 58 58 58 57 57 58 57 58 58 58 58 57 57 57 58 60 62 62 63 62 62 62 62 62 63 63 64 64 64 65 65 65 65 65 65 64 64 64 63 63 62 62 62 62 62 62 62 62 62 63 63 63 63 63 63 63 64 64 64 64 65 65 66
59 58 58 58 58 58 58 58 59 59 59 59 59 59 59 58 58 58 58 58 58 58 58 58 58 58 58 58 58 58 58 58 58 58 58 58 58 58 58 58 58 58 58 58 58 58 58 58 58 58 57 57 57 57 58 59 61 62 63 62 62 62 62 62 63 63 64 64 64 65 65 65 65 65 65 65 65 64 64 64 63 63 62 62 62 62 62 62 62 62 63 63 63 63 63 63 63 64 64 64 64 65 65
59 59 59 59 59 59 59 59 59 59 59 60 60 59 59 58 58 58 58 58 58 58 58 58 58 58 58 58 58 58 58 58 58 58 58 58 58 58 58 58 58 58 58 58 58 58 58 57 57 57 57 57 57 57 58 59 61 62 62 62 62 62 62 62 63 63 64 64 64 65 65 65 65 65 65 65 65 65 65 64 64 64 63 63 63 62 62 62 62 62 62 62 62 63 63 63 63 63 64 64 64 64 65
60 59 59 59 59 59 59 59 59 60 60 60 60 59 59 58 58 58 58 58 58 58 58 58 58 58 58 58 58 58 58 58 58 58 58 58 58 58 58 58 58 58 58 58 58 58 57 57 57 57 57 57 57 57 57 59 61 62 62 62 62 62 62 62 62 63 63 64 64 64 65 65 65 65 65 65 65 65 65 65 65 65 64 64 63 63 63 62 62 62 62 62 62 62 62 63 63 63 63 63 64 64 64
60 59 59 59 59 59 59 59 59 60 60 60 60 59 59 58 58 58 58 58 58 58 58 58 58 58 58 58 58 58 58 58 58 58 58 58 58 58 58 58 58 57 57 57 57 57 57 57 57 57 57 57 57 56 56 58 60 61 62 62 62 62 62 62 62 62 63 63 64 64 64 64 65 65 65 65 65 65 65 65 65 65 65 65 64 64 63 63 63 62 62 62 62 62 62 62 63 63 63 63 63 64 64
60 59 60 59 59 59 59 59 59 59 59 59 59 59 59 58 58 58 58 58 58 58 58 58 58 58 58 58 58 58 58 58 58 58 58 58 58 58 57 57 57 57 57 57 57 57 57 57 57 56 56 56 56 56 56 57 58 60 61 62 62 62 62 62 62 62 62 63 63 64 64 64 64 64 65 65 65 65 65 66 66 66 66 65 65 65 64 64 64 63 63 62 62 62 62 62 62 62 63 63 63 63 63
60 60 60 59 59 59 59 59 59 59 59 59 59 59 59 59 58 58 58 58 58 58 58 58 58 58 58 58 58 58 58 58 58 58 57 57 57 57 57 56 56 56 56 56 56 56 56 56 56 56 56 56 55 55 55 56 57 59 60 61 61 62 62 62 62 62 62 62 63 63 64 64 64 64 64 64 65 65 65 65 66 66 66 66 66 65 65 65 65 64 64 63 62 62 62 62 62 62 62 62 62 63 63
60 60 60 59 59 59 59 59 59 59 59 59 59 59 59 59 59 59 58 58 58 58 58 58 58 58 58 58 58 58 58 58 58 57 57 57 56 56 56 56 55 55 55 55 55 56 56 56 56 55 55 55 55 55 55 55 56 58 60 60 61 61 62 62 62 62 62 62 62 63 63 63 63 64 64 64 64 64 64 65 65 65 66 66 66 66 66 66 65 65 65 64 63 63 62 62 62 62 62 62 62 62 63
60 60 60 60 59 59 60 59 59 59 59 59 59 59 59 59 59 59 59 58 58 58 58 58 58 58 58 58 58 58 58 58 58 57 57 56 56 56 56 56 55 55 55 55 55 55 55 55 55 55 55 55 55 55 55 55 55 56 58 59 60 61 61 61 62 62 62 62 62 62 63 63 63 63 63 64 64 64 64 64 64 65 65 66 66 66 66 66 66 66 65 65 64 64 63 63 62 62 62 62 62 62 62
60 60 60 60 59 59 59 59 59 59 59 59 59 59 59 59 59 58 58 58 58 58 58 58 58 58 58 58 58 58 58 57 57 57 57 56 56 56 56 56 55 55 55 55 55 55 55 55 55 55 55 55 55 55 55 55 55 55 57 58 59 60 60 61 61 61 62 62 62 62 62 63 63 63 63 63 63 63 63 64 64 64 64 65 65 65 66 66 66 66 66 66 65 65 64 63 63 62 62 62 62 62 62
60 60 60 59 59 59 59 59 59 59 59 59 59 59 59 58 58 58 58 58 58 58 58 58 58 58 57 57 57 57 57 57 57 57 56 56 56 56 56 56 56 55 55 55 55 55 55 55 55 55 55 55 55 55 55 55 55 55 56 56 57 58 60 60 61 61 61 61 62 62 62 62 62 63 63 63 63 63 63 63 63 64 64 64 64 64 65 65 66 66 66 66 66 66 65 64 64 63 63 62 62 62 62
60 60 60 59 59 59 59 59 59 59 59 59 59 59 59 58 58 58 58 58 58 58 57 57 57 57 57 57 57 57 56 56 56 56 56 56 56 56 56 56 55 55 55 55 55 55 55 55 55 55 55 55 55 55 55 55 55 55 55 56 57 57 59 59 60 60 60 61 61 61 62 62 62 62 62 62 62 62 63 63 63 63 63 63 64 64 64 64 65 65 65 66 66 66 66 65 65 64 64 63 63 62 62
60 60 60 59 59 59 59 59 59 59 59 59 59 59 58 58 58 58 58 58 57 57 57 57 57 57 56 56 56 56 56 56 56 56 56 56 56 56 56 55 55 55 54 54 54 54 54 54 54 54 54 54 54 54 54 54 54 54 54 55 55 56 57 58 58 59 60 60 60 61 61 61 62 62 62 62 62 62 62 62 63 63 63 63 63 63 64 64 64 64 64 65 65 66 66 66 65 65 65 64 64 63 62
60 60 60 60 59 59 59 59 59 59 59 59 59 59 58 58 58 58 58 57 57 57 56 56 56 56 56 56 55 55 56 56 56 56 55 55 55 55 55 55 54 54 53 53 53 53 53 53 53 53 53 53 53 53 53 53 53 54 54 54 54 54 55 55 55 57 58 59 60 60 61 61 61 61 61 62 62 62 62 62 62 62 63 63 63 63 63 63 63 63 64 64 64 65 65 65 65 65 65 65 64 64 63
60 60 60 59 59 59 59 59 59 59 59 58 58 58 58 58 58 58 57 56 56 56 56 56 56 56 55 55 54 54 54 54 54 53 53 53 53 54 54 54 53 53 53 52 53 52 52 52 52 52 52 52 52 52 53 53 53 53 53 53 53 53 53 54 54 54 55 57 58 60 60 61 61 61 61 61 61 61 62 62 62 62 62 62 63 63 63 63 63 63 63 64 64 64 64 64 64 64 64 65 65 65 64
60 59 59 59 58 58 58 58 58 58 58 58 58 58 57 57 57 57 56 56 55 55 55 55 55 55 54 54 53 53 54 53 53 52 52 52 52 52 53 53 53 53 52 52 51 51 50 50 50 50 51 51 51 52 52 52 52 52 52 53 53 53 53 53 53 53 54 55 56 58 60 60 61 61 61 61 61 61 61 61 61 62 62 62 62 62 63 63 63 63 63 63 64 64 63 63 63 63 63 64 64 64 65
59 59 59 58 58 58 58 58 58 58 57 57 57 57 57 56 56 56 55 55 55 54 54 54 53 53 53 53 53 53 53 53 52 51 51 50 51 51 51 52 52 52 51 51 50 49 49 49 49 49 49 50 50 51 51 51 51 51 52 52 52 52 52 52 52 53 53 53 54 56 58 59 60 60 60 60 60 60 60 61 61 61 61 62 62 62 62 62 62 63 63 63 63 63 63 63 63 63 63 63 63 63 64
59 58 58 58 58 58 57 56 56 56 56 56 56 56 55 55 55 54 54 54 54 54 54 53 53 53 52 52 52 52 52 52 51 50 50 49 49 50 50 51 51 50 49 49 48 47 47 47 48 48 49 49 49 50 50 50 50 50 51 51 52 52 52 53 53 53 52 53 53 54 55 58 59 59 60 60 60 60 60 60 60 60 61 61 61 62 62 62 62 62 63 63 63 63 63 63 63 63 63 63 63 63 63
58 57 57 57 56 56 55 55 55 55 55 55 55 54 54 54 53 53 53 53 53 53 53 52 52 52 51 50 50 50 49 49 49 49 48 48 48 48 49 49 49 48 47 46 45 45 46 47 47 48 48 49 49 49 49 49 49 49 50 50 51 51 52 52 52 52 52 53 53 53 53 57 58 58 59 60 60 60 60 60 60 60 60 60 61 61 61 62 62 62 62 63 63 63 63 63 63 63 63 63 63 62 62
56 56 55 54 54 54 53 54 54 54 54 53 53 53 52 52 52 52 51 51 51 51 51 50 50 50 49 48 48 47 47 46 46 46 46 45 44 45 46 46 45 45 44 44 44 44 45 46 47 48 49 48 47 47 47 48 48 48 49 49 49 50 51 51 51 52 52 53 53 53 53 54 56 58 58 59 59 60 60 60 60 60 60 60 60 61 61 61 62 62 62 62 62 63 63 63 63 63 63 63 63 63 62
54 53 52 51 51 51 51 52 52 53 53 52 51 51 50 50 49 49 48 48 49 49 48 48 48 48 47 46 45 44 44 43 43 43 43 41 41 41 42 43 43 43 43 43 44 44 44 45 46 47 47 46 45 44 45 45 46 47 48 49 49 49 50 51 52 52 53 53 52 52 51 52 53 55 57 58 58 59 59 59 59 59 59 60 60 60 61 61 61 61 62 62 62 62 62 62 62 62 63 63 63 63 63
50 50 49 48 48 48 47 48 49 50 51 50 49 49 48 47 46 45 44 45 46 45 44 44 45 46 45 44 43 42 41 40 40 40 40 39 39 40 41 42 42 42 42 42 42 43 43 44 44 44 44 43 43 43 43 44 45 46 47 48 49 50 51 52 52 52 52 51 51 51 51 51 51 52 53 54 56 56 58 58 58 59 59 60 60 60 60 61 61 61 61 62 62 62 62 62 62 62 62 63 63 63 63
46 46 45 45 44 44 44 45 46 48 48 47 46 46 44 43 43 42 42 42 43 43 42 42 42 43 43 43 41 40 39 38 39 39 39 39 40 40 41 41 41 41 41 41 41 41 42 43 43 42 42 42 42 42 42 44 45 45 46 48 49 51 51 51 50 49 49 48 48 48 49 50 49 49 49 50 51 52 53 56 57 58 59 59 60 60 60 60 61 61 61 61 62 62 62 62 62 62 62 62 62 62 63
43 43 43 42 42 43 43 43 44 45 44 44 43 42 41 40 40 40 40 40 41 41 41 41 41 40 40 41 40 38 37 37 38 38 38 39 39 40 41 40 40 40 40 39 39 39 40 41 40 40 40 41 41 41 41 44 44 44 44 46 46 47 47 46 45 44 43 43 44 44 45 46 45 45 46 47 48 48 49 52 54 57 58 58 59 60 60 60 60 61 61 61 62 62 62 62 62 62 62 62 62 62 62
42 41 41 41 41 41 42 42 43 43 43 42 41 40 40 40 40 40 40 40 41 41 42 42 41 40 39 39 38 37 37 37 38 38 38 38 38 39 39 38 38 37 37 37 37 38 40 38 38 38 39 39 40 40 40 42 43 42 41 42 41 40 40 40 39 39 39 40 41 42 42 42 42 42 42 44 44 44 46 48 50 53 56 57 58 59 60 60 60 60 61 61 62 62 62 62 62 62 62 62 62 62 62
41 41 40 40 40 40 40 41 43 43 43 42 41 40 40 40 40 40 41 40 41 41 42 42 41 40 38 37 37 37 37 37 37 38 38 37 36 36 36 36 35 35 35 36 37 38 39 37 36 37 38 38 39 39 40 40 39 39 38 39 38 37 36 37 37 38 39 40 40 40 40 40 40 40 39 40 41 42 43 44 46 49 52 54 57 58 59 60 60 60 61 61 61 62 62 62 62 62 62 62 62 62 62
40 39 39 39 40 40 40 40 42 43 43 42 41 40 40 40 40 40 40 40 40 40 40 40 40 39 37 36 36 36 37 37 37 37 37 36 35 34 33 33 32 32 32 34 35 37 37 36 36 36 37 37 37 37 36 36 36 36 37 37 36 36 36 36 37 38 39 39 39 39 40 40 39 39 39 39 40 40 41 43 44 46 48 50 52 54 55 58 59 59 60 61 61 61 62 62 62 62 62 62 62 62 62
39 39 38 39 39 40 40 40 40 41 41 42 41 40 40 40 40 40 38 37 38 38 38 37 37 37 37 36 36 36 36 36 36 36 36 35 35 34 33 31 30 29 29 30 33 35 36 35 35 35 35 34 34 33 33 34 34 35 35 36 36 36 36 37 38 38 38 37 37 38 39 39 39 39 39 39 40 40 40 41 42 43 44 44 46 47 49 51 54 57 59 60 60 61 61 61 62 62 62 62 62 62 61
39 38 38 38 39 39 40 40 40 40 41 41 39 38 38 37 37 37 37 37 36 36 36 36 35 36 36 36 36 35 35 34 35 35 35 35 35 35 35 32 30 28 27 27 29 31 32 31 31 31 31 30 30 31 31 32 33 34 35 36 36 35 36 37 37 37 36 36 36 36 37 38 38 39 39 39 39 39 40 40 40 41 42 42 43 44 45 47 49 51 55 57 58 59 60 61 61 62 62 62 62 62 61
38 37 36 37 37 38 39 39 38 38 39 39 38 37 37 36 35 35 35 35 35 35 35 35 35 35 35 35 34 34 34 34 34 35 35 35 34 33 33 31 30 28 28 26 25 24 25 25 26 27 28 28 29 30 31 31 32 34 35 35 35 35 35 35 35 35 35 34 35 35 36 36 38 38 39 38 38 39 39 39 39 40 40 41 41 42 43 44 46 48 49 52 55 58 58 59 60 61 61 61 62 62 61
37 35 35 35 35 36 37 36 36 36 38 37 37 36 35 34 33 33 32 33 33 33 33 35 35 35 34 33 32 32 32 33 34 35 35 35 34 33 32 32 31 31 29 26 23 21 20 23 24 26 27 29 29 30 31 31 31 32 34 34 34 34 34 34 34 34 34 33 33 34 35 35 36 36 37 36 36 37 37 38 38 39 39 40 40 40 41 43 44 46 47 48 49 52 55 57 58 59 60 61 61 61 62
35 34 33 33 34 35 35 34 34 35 36 36 36 36 35 33 32 31 31 31 32 32 32 33 33 33 34 33 32 32 32 33 34 34 34 35 35 35 34 34 32 30 26 24 22 21 21 24 25 26 27 28 29 29 29 30 31 31 33 33 32 32 32 32 32 32 32 32 32 33 33 34 34 35 34 35 35 35 36 37 37 38 38 39 39 40 41 43 44 44 45 45 47 49 51 56 58 58 59 59 60 61 61
34 33 33 32 32 32 33 33 33 33 34 35 35 35 34 33 32 31 31 31 31 31 32 32 32 33 34 34 33 33 33 32 33 33 34 34 35 37 37 34 31 26 23 22 22 23 25 26 26 26 26 28 28 28 28 29 30 31 33 32 31 31 31 31 31 30 30 31 31 31 31 32 33 32 33 34 34 35 35 36 37 37 38 38 39 40 40 41 42 42 43 44 45 47 48 53 55 57 58 58 59 60 60
34 32 31 31 31 31 32 32 32 32 33 33 34 34 33 32 31 31 31 30 30 30 31 32 32 32 33 34 35 34 33 31 32 33 35 35 35 36 36 34 31 29 27 26 26 26 27 28 27 26 26 28 28 28 29 30 30 31 31 30 29 29 29 28 28 29 29 29 30 30 30 31 32 32 33 34 34 34 35 35 36 37 37 38 38 39 39 40 41 42 42 42 44 45 47 50 53 55 56 57 58 59 59
33 31 29 30 30 30 31 31 31 31 32 33 33 33 32 31 31 30 30 30 29 30 31 31 31 32 33 35 35 35 33 31 31 33 35 35 35 34 34 33 33 33 32 31 30 29 29 28 27 26 25 25 27 29 30 29 28 28 28 27 27 26 26 26 26 27 27 28 28 28 29 30 31 32 33 33 33 33 34 35 35 36 37 38 38 38 38 39 40 41 41 42 44 45 48 50 52 54 56 57 58 58 59
32 31 29 29 29 29 29 30 30 30 31 32 33 32 31 30 29 29 28 29 29 29 29 29 30 32 33 34 35 35 33 32 32 32 33 33 33 32 33 32 31 31 31 31 31 31 30 28 27 26 25 23 24 26 29 27 26 26 25 25 25 25 25 25 26 26 26 26 27 27 27 29 30 31 31 31 32 32 33 34 35 36 37 37 37 37 38 40 41 42 43 44 46 47 49 51 53 56 58 58 58 58 58
32 30 28 28 27 28 28 28 29 30 30 31 32 31 30 29 28 27 26 27 28 28 28 28 30 31 33 33 34 34 34 33 33 33 32 31 30 31 31 30 29 29 29 30 30 30 30 29 28 27 26 25 23 22 23 24 25 24 24 23 23 23 24 25 25 26 26 26 26 26 26 27 28 29 29 30 31 31 32 34 35 35 37 36 36 36 37 37 38 40 42 44 46 48 50 53 55 57 58 58 58 58 58
31 30 29 28 27 26 26 27 28 29 29 31 31 30 29 28 26 26 24 25 25 26 27 28 29 31 32 32 33 34 35 34 33 32 31 30 29 30 30 29 28 28 29 29 29 29 28 28 29 29 28 27 24 22 20 20 21 22 22 22 22 22 23 23 24 24 24 25 25 25 25 26 26 27 28 29 30 31 31 32 33 34 35 34 34 34 35 35 35 37 39 41 44 47 51 53 56 57 57 57 57 57 58